+ View the NASA Portal
+ Center for Near-Earth Object Studies
JPL Small-Body Database Browser
Search:
[
help
]
3577 Putilin (1969 TK)
Classification:
Outer Main-belt Asteroid
SPK-ID:
2003577
[
Ephemeris
|
Orbit Diagram
|
Orbital Elements
|
Mission Design
|
Physical Parameters
|
Discovery Circumstances
|
Close-Approach Data
]
[ show orbit diagram ]
Orbital Elements at Epoch 2459200.5 (2020-Dec-17.0) TDB
Reference:
JPL 37
(heliocentric ecliptic J2000)
Element
Value
Uncertainty (1-sigma)
Units
e
.1958261311118006
3.1399e-08
a
3.941838782773812
2.629e-08
au
q
3.169923744476767
1.2043e-07
au
i
3.742310303249864
3.4636e-06
deg
node
280.1632935231781
6.9328e-05
deg
peri
179.5059708175537
7.0227e-05
deg
M
110.4791430176289
1.1399e-05
deg
t
p
2458323.247711109299
(2018-Jul-23.74771111)
8.8245e-05
TDB
period
2858.556062027556
7.83
2.8598e-05
7.83e-08
d
yr
n
.1259377084753252
1.2599e-09
deg/d
Q
4.713753821070857
3.1439e-08
au
Orbit Determination Parameters
# obs. used (total)
2900
data-arc span
21649 days (59.27 yr)
first obs. used
1961-10-10
last obs. used
2021-01-17
planetary ephem.
DE431
SB-pert. ephem.
SB431-N16
condition code
0
norm. resid. RMS
.39263
source
ORB
producer
Otto Matic
solution date
2021-Feb-24 19:06:10
Additional Information
Earth MOID
= 2.18661 au
Jupiter MOID
= .474887 au
T_jup
= 3.023
[ hide covariance matrix ]
Orbital Elements at Epoch 2457076.5 (2015-Feb-23.0) TDB
Reference:
JPL 37
(heliocentric ecliptic J2000)
Element
Value
Uncertainty (1-sigma)
Units
e
.1974830686934099
3.1372e-08
q
3.167740857499123
1.2079e-07
au
t
p
2458323.854039584405
(2018-Jul-24.35403958)
8.7564e-05
TDB
node
280.2165036362597
6.9294e-05
deg
peri
179.7040778344223
7.0177e-05
deg
i
3.742629626720853
3.4638e-06
deg
Orbit Determination Parameters
# obs. used (total)
2900
data-arc span
21649 days (59.27 yr)
first obs. used
1961-10-10
last obs. used
2021-01-17
planetary ephem.
DE431
SB-pert. ephem.
SB431-N16
condition code
0
norm. resid. RMS
.39263
source
ORB
producer
Otto Matic
solution date
2021-Feb-24 19:06:10
Additional Information
Jupiter MOID
= .474887 au
T_jup
= 3.023
Orbit Covariance (6×6)
e
q
tp
node
peri
i
e
9.842083742305492E-16
-3.734050623058283E-15
-1.333588776520747E-14
-1.542808303725777E-15
-3.740880589724338E-14
-9.098031569940798E-17
q
-3.734050623058283E-15
1.458968765925378E-14
4.436909711561061E-13
9.759980295236214E-15
1.584265635262825E-13
8.016046491995088E-16
tp
-1.333588776520747E-14
4.436909711561061E-13
7.667537669515654E-9
-4.774191721782851E-12
1.00617165603083E-9
-1.06524044631383E-12
node
-1.542808303725777E-15
9.759980295236214E-15
-4.774191721782851E-12
4.801663648601588E-9
-4.79199816307443E-9
-7.027368885185994E-12
peri
-3.740880589724338E-14
1.584265635262825E-13
1.00617165603083E-9
-4.79199816307443E-9
4.924789469494172E-9
6.845535178195082E-12
i
-9.098031569940798E-17
8.016046491995088E-16
-1.06524044631383E-12
-7.027368885185994E-12
6.845535178195082E-12
1.199776194053881E-11
[
Ephemeris
|
Orbit Diagram
|
Orbital Elements
|
Mission Design
|
Physical Parameters
|
Discovery Circumstances
|
Close-Approach Data
]
Physical Parameter Table
Parameter
Symbol
Value
Units
Sigma
Reference
Notes
absolute magnitude
H
10.54
n/a
E2021B10
diameter
diameter
49.135
km
0.290
urn:nasa:pds:neowise_diameters_albedos::2.0[hildas] (http://adsabs.harvard.edu/abs/2012ApJ...744..197G)
rotation period
rot_per
18.239
h
n/a
LCDB (Rev. 2020-October); Warner et al., 2009
Published Reference List:
[Brinsfield, J.W. (2011) Minor Planet Bull. 38, 154-155.]
[Warner, B.D.; Stephens, R.D. (2019) Minor Planet Bull. 46, 406-412.]
geometric albedo
albedo
0.051
0.009
urn:nasa:pds:neowise_diameters_albedos::2.0[hildas] (http://adsabs.harvard.edu/abs/2012ApJ...744..197G)
3577 Putilin (1969 TK)
Discovered 1969-Oct-07 by Chernykh, L. at Nauchnyj
Reference:
DISCOVERY.DB
Last Updated:
2003-08-29
[ show close-approach data ]
Alternate Designations
1969 TK
= 1961 TX = 1969 TZ7 = 1969 UV2 = 1970 XH = 1977 RP5 = 1980 FW9 = 1985 RM2
[
Ephemeris
|
Orbit Diagram
|
Orbital Elements
|
Mission Design
|
Physical Parameters
|
Discovery Circumstances
|
Close-Approach Data
]
2021-Mar-03 22:28 UT
(server date/time)
Site Manager:
Ryan S. Park
Webmaster
:
Alan B. Chamberlin